User: anonymous   Login
Location: Unspecified
(0.0000°N, 0.0000°E)
Time: 20:03:07
(UTC+00:00)
Language:

STARLINK-1964 - Orbit

View from above orbital plane
View from above orbital plane
View from above satellite
View from above satellite

Ground track
Ground track

The orbit is defined by the following mean orbital elements,

1 47565U          26145.66668980 +.00000000 +00000-0 +83583-3 0 00007
2 47565  53.0376 305.1004 0007369 239.9192 359.0880 15.87057793    01
Epoch (UTC): 25 May 2026 16:00:01
Eccentricity: 0.0007369
inclination: 53.0376°
perigee height: 306 km
apogee height: 315 km
right ascension of ascending node: 305.1004°
argument of perigee: 239.9192°
revolutions per day: 15.87057793
mean anomaly at epoch: 359.0880°

The dashed part of the orbit path shows where the satellite is in the earth's shadow,  

DLR